| time (UTC) | temp C | wind direction | speed KPH | gust KPH | rain 1hr cm | rain 24hr cm | rain mn cm | humidity % | barometer mb |
| 20260906075459 | 62 | 194 | 0.0 | 8.0 | 0.00 | 0.00 | 0.00 | 100 | 1012.3 |
| 20260906074958 | 62 | 202 | 1.6 | 8.0 | 0.00 | 0.00 | 0.00 | 100 | 1012.4 |
| 20260906074443 | 62 | 196 | 0.0 | 8.0 | 0.00 | 0.00 | 0.00 | 100 | 1012.5 |
| 20260906073941 | 62 | 196 | 1.6 | 8.0 | 0.00 | 0.00 | 0.00 | 100 | 1012.5 |
| 20260906073428 | 62 | 153 | 0.0 | 9.7 | 0.00 | 0.00 | 0.00 | 100 | 1012.5 |
| 20260906072923 | 62 | 181 | 0.0 | 6.4 | 0.00 | 0.00 | 0.00 | 100 | 1012.6 |
| 20260906072413 | 62 | 237 | 0.0 | 6.4 | 0.00 | 0.00 | 0.00 | 100 | 1012.5 |
| 20260906071857 | 62 | 164 | 0.0 | 9.7 | 0.00 | 0.00 | 0.00 | 100 | 1012.6 |
| 20260906071335 | 62 | 154 | 1.6 | 9.7 | 0.00 | 0.00 | 0.00 | 100 | 1012.6 |
| 20260906070812 | 62 | 150 | 4.8 | 9.7 | 0.00 | 0.00 | 0.00 | 100 | 1012.8 |
| 20260906070311 | 62 | 189 | 0.0 | 9.7 | 0.00 | 0.00 | 0.00 | 100 | 1012.8 |
| 20260906065757 | 62 | 192 | 3.2 | 9.7 | 0.00 | 0.00 | 0.00 | 100 | 1012.9 |
| 20260906065252 | 62 | 170 | 3.2 | 8.0 | 0.00 | 0.00 | 0.00 | 100 | 1012.9 |
| 20260906064733 | 62 | 154 | 0.0 | 3.2 | 0.00 | 0.00 | 0.00 | 100 | 1012.9 |
| 20260906064504 | 62 | 154 | 0.0 | 12.9 | 0.00 | 0.00 | 0.00 | 100 | 1013.0 |
| 20260906063712 | 62 | 154 | 3.2 | 12.9 | 0.00 | 0.00 | 0.00 | 100 | 1013.1 |
| 20260906063203 | 62 | 120 | 0.0 | 9.7 | 0.00 | 0.00 | 0.00 | 100 | 1013.1 |
| 20260906062652 | 62 | 178 | 3.2 | 9.7 | 0.00 | 0.00 | 0.00 | 100 | 1013.1 |
| 20260906062145 | 62 | 94 | 0.0 | 4.8 | 0.00 | 0.00 | 0.00 | 100 | 1013.1 |
| 20260906061643 | 62 | 163 | 0.0 | 9.7 | 0.00 | 0.00 | 0.00 | 100 | 1013.1 |
| 20260906061131 | 62 | 160 | 3.2 | 9.7 | 0.00 | 0.00 | 0.00 | 100 | 1013.2 |
| 20260906060626 | 62 | 177 | 0.0 | 9.7 | 0.00 | 0.00 | 0.00 | 100 | 1013.3 |
| 20260906060110 | 62 | 151 | 6.4 | 9.7 | 0.00 | 0.00 | 0.00 | 100 | 1013.2 |
| 20260906055610 | 62 | 137 | 0.0 | 8.0 | 0.00 | 0.00 | 0.00 | 100 | 1013.2 |
| 20260906055111 | 62 | 149 | 3.2 | 8.0 | 0.00 | 0.00 | 0.00 | 100 | 1013.2 |
| 20260906054605 | 62 | 167 | 0.0 | 9.7 | 0.00 | 0.00 | 0.00 | 100 | 1013.3 |
| 20260906054313 | 62 | 167 | 0.0 | 9.7 | 0.00 | 0.00 | 0.00 | 100 | 1013.2 |
| 20260906053543 | 62 | 146 | 0.0 | 8.0 | 0.00 | 0.00 | 0.00 | 100 | 1013.0 |
| 20260906053042 | 62 | 146 | 0.0 | 8.0 | 0.00 | 0.00 | 0.00 | 100 | 1012.9 |
| 20260906052532 | 62 | 116 | 0.0 | 9.7 | 0.00 | 0.00 | 0.00 | 100 | 1012.9 |
| 20260906052030 | 62 | 153 | 0.0 | 9.7 | 0.00 | 0.00 | 0.00 | 100 | 1012.9 |
| 20260906051531 | 62 | 129 | 6.4 | 9.7 | 0.00 | 0.00 | 0.00 | 100 | 1013.0 |
| 20260906051023 | 62 | 125 | 0.0 | 6.4 | 0.00 | 0.00 | 0.00 | 100 | 1013.1 |
| 20260906050520 | 62 | 157 | 0.0 | 9.7 | 0.00 | 0.00 | 0.00 | 100 | 1013.2 |
| 20260906050015 | 62 | 144 | 4.8 | 9.7 | 0.00 | 0.00 | 0.00 | 100 | 1013.1 |
| 20260906045515 | 62 | 161 | 6.4 | 14.5 | 0.00 | 0.00 | 0.00 | 100 | 1013.2 |
| 20260906045014 | 62 | 208 | 0.0 | 16.1 | 0.00 | 0.00 | 0.00 | 100 | 1013.1 |
| 20260906044500 | 62 | 126 | 9.7 | 16.1 | 0.00 | 0.00 | 0.00 | 100 | 1013.2 |
| 20260906044231 | 62 | 170 | 6.4 | 12.9 | 0.00 | 0.00 | 0.00 | 100 | 1013.2 |
| 20260906043733 | 62 | 178 | 3.2 | 16.1 | 0.00 | 0.00 | 0.00 | 100 | 1013.2 |
| 20260906043606 | 62 | 175 | 6.4 | 16.1 | 0.00 | 0.00 | 0.00 | 100 | 1013.1 |
| 20260906042457 | 62 | 109 | 3.2 | 14.5 | 0.00 | 0.00 | 0.00 | 100 | 1013.1 |
| 20260906041957 | 62 | 123 | 1.6 | 14.5 | 0.00 | 0.00 | 0.00 | 100 | 1013.0 |
| 20260906041458 | 62 | 172 | 8.0 | 12.9 | 0.00 | 0.00 | 0.00 | 100 | 1012.9 |
| 20260906041227 | 62 | 181 | 1.6 | 9.7 | 0.00 | 0.00 | 0.00 | 100 | 1012.9 |
| 20260906040458 | 62 | 146 | 0.0 | 12.9 | 0.00 | 0.00 | 0.00 | 100 | 1012.9 |
| 20260906035948 | 62 | 98 | 6.4 | 12.9 | 0.00 | 0.00 | 0.00 | 100 | 1012.9 |
| 20260906035444 | 62 | 150 | 6.4 | 12.9 | 0.00 | 0.00 | 0.00 | 100 | 1012.8 |
| 20260906034940 | 62 | 97 | 6.4 | 16.1 | 0.00 | 0.00 | 0.00 | 100 | 1012.8 |
| 20260906034437 | 62 | 143 | 8.0 | 16.1 | 0.00 | 0.00 | 0.00 | 100 | 1012.8 |
| 20260906033936 | 62 | 161 | 6.4 | 9.7 | 0.00 | 0.00 | 0.00 | 100 | 1012.8 |
| 20260906033437 | 63 | 160 | 0.0 | 9.7 | 0.00 | 0.00 | 0.00 | 100 | 1012.9 |
| 20260906032937 | 63 | 167 | 8.0 | 16.1 | 0.00 | 0.00 | 0.00 | 100 | 1012.9 |
| 20260906032435 | 63 | 150 | 3.2 | 16.1 | 0.00 | 0.00 | 0.00 | 100 | 1012.8 |
| 20260906031936 | 63 | 115 | 3.2 | 12.9 | 0.00 | 0.00 | 0.00 | 100 | 1012.8 |
| 20260906031427 | 63 | 161 | 4.8 | 12.9 | 0.00 | 0.00 | 0.00 | 100 | 1012.5 |
| 20260906030927 | 63 | 163 | 3.2 | 11.3 | 0.00 | 0.00 | 0.00 | 100 | 1012.4 |
| 20260906030427 | 63 | 92 | 3.2 | 11.3 | 0.00 | 0.00 | 0.00 | 100 | 1012.3 |
| 20260906030151 | 63 | 143 | 4.8 | 16.1 | 0.00 | 0.00 | 0.00 | 100 | 1012.3 |
| 20260906025412 | 63 | 57 | 8.0 | 19.3 | 0.00 | 0.00 | 0.00 | 100 | 1012.3 |
| 20260906024910 | 63 | 163 | 8.0 | 19.3 | 0.00 | 0.00 | 0.00 | 100 | 1012.2 |
| 20260906024410 | 63 | 156 | 4.8 | 16.1 | 0.00 | 0.00 | 0.00 | 100 | 1012.0 |
| 20260906023909 | 63 | 170 | 4.8 | 12.9 | 0.00 | 0.00 | 0.00 | 100 | 1011.8 |
| 20260906023408 | 63 | 92 | 6.4 | 12.9 | 0.00 | 0.00 | 0.00 | 100 | 1011.7 |
| 20260906022909 | 63 | 136 | 1.6 | 14.5 | 0.00 | 0.00 | 0.00 | 100 | 1011.5 |
| 20260906022404 | 63 | 140 | 1.6 | 14.5 | 0.00 | 0.00 | 0.00 | 100 | 1011.4 |
| 20260906021905 | 63 | 142 | 8.0 | 16.1 | 0.00 | 0.00 | 0.00 | 100 | 1011.2 |
| 20260906021405 | 63 | 147 | 3.2 | 16.1 | 0.00 | 0.00 | 0.00 | 100 | 1011.1 |
| 20260906020900 | 63 | 123 | 6.4 | 14.5 | 0.00 | 0.00 | 0.00 | 100 | 1011.1 |
| 20260906020401 | 63 | 108 | 0.0 | 14.5 | 0.00 | 0.00 | 0.00 | 100 | 1011.0 |
| 20260906015857 | 63 | 151 | 0.0 | 14.5 | 0.00 | 0.00 | 0.00 | 100 | 1010.9 |
| 20260906015624 | 63 | 119 | 4.8 | 12.9 | 0.00 | 0.00 | 0.00 | 100 | 1010.9 |
| 20260906014848 | 63 | 132 | 6.4 | 12.9 | 0.00 | 0.00 | 0.00 | 100 | 1010.9 |
| 20260906014616 | 63 | 146 | 4.8 | 12.9 | 0.00 | 0.00 | 0.00 | 100 | 1010.9 |
| 20260906013846 | 63 | 163 | 3.2 | 12.9 | 0.00 | 0.00 | 0.00 | 100 | 1010.9 |
| 20260906013345 | 63 | 140 | 0.0 | 16.1 | 0.00 | 0.00 | 0.00 | 100 | 1010.9 |
| 20260906012844 | 63 | 127 | 8.0 | 17.7 | 0.00 | 0.00 | 0.00 | 100 | 1010.7 |
| 20260906012341 | 63 | 174 | 8.0 | 20.9 | 0.00 | 0.00 | 0.00 | 100 | 1010.8 |
| 20260906011842 | 63 | 144 | 3.2 | 20.9 | 0.00 | 0.00 | 0.00 | 100 | 1010.7 |
| 20260906011342 | 63 | 129 | 8.0 | 19.3 | 0.00 | 0.00 | 0.00 | 100 | 1010.7 |
| 20260906010841 | 63 | 146 | 8.0 | 20.9 | 0.00 | 0.00 | 0.00 | 100 | 1010.6 |
| 20260906010341 | 63 | 129 | 6.4 | 20.9 | 0.00 | 0.00 | 0.00 | 100 | 1010.6 |
| 20260906005841 | 63 | 106 | 4.8 | 17.7 | 0.00 | 0.00 | 0.00 | 100 | 1010.6 |
| 20260906005606 | 64 | 68 | 4.8 | 17.7 | 0.00 | 0.00 | 0.00 | 100 | 1010.5 |
| 20260906004835 | 63 | 150 | 3.2 | 12.9 | 0.00 | 0.00 | 0.00 | 100 | 1010.5 |
| 20260906004333 | 64 | 144 | 0.0 | 14.5 | 0.00 | 0.00 | 0.00 | 100 | 1010.5 |
| 20260906004055 | 64 | 157 | 6.4 | 14.5 | 0.00 | 0.00 | 0.00 | 100 | 1010.5 |
| 20260906003324 | 64 | 137 | 0.0 | 8.0 | 0.00 | 0.00 | 0.00 | 100 | 1010.5 |
| 20260906002821 | 64 | 113 | 0.0 | 6.4 | 0.00 | 0.00 | 0.00 | 100 | 1010.4 |
| 20260906002306 | 64 | 149 | 0.0 | 6.4 | 0.00 | 0.00 | 0.00 | 100 | 1010.3 |
| 20260906001800 | 64 | 154 | 0.0 | 0.0 | 0.00 | 0.00 | 0.00 | 100 | 1010.3 |
| 20260906001241 | 64 | 154 | 0.0 | 0.0 | 0.00 | 0.00 | 0.00 | 100 | 1010.3 |
| 20260906000735 | 64 | 154 | 0.0 | 3.2 | 0.00 | 0.00 | 0.00 | 100 | 1010.3 |
| 20260906000226 | 64 | 154 | 0.0 | 8.0 | 0.00 | 0.00 | 0.00 | 100 | 1010.3 |
| 20260905235723 | 64 | 154 | 3.2 | 8.0 | 0.00 | 0.00 | 0.00 | 100 | 1010.2 |
| 20260905235220 | 64 | 147 | 0.0 | 6.4 | 0.00 | 0.00 | 0.00 | 100 | 1010.2 |
| 20260905234704 | 64 | 147 | 0.0 | 6.4 | 0.00 | 0.00 | 0.00 | 100 | 1010.2 |
| 20260905234158 | 64 | 74 | 0.0 | 4.8 | 0.00 | 0.00 | 0.00 | 100 | 1010.2 |
| 20260905233648 | 64 | 40 | 0.0 | 3.2 | 0.00 | 0.00 | 0.00 | 100 | 1010.0 |
| 20260905233147 | 64 | 36 | 0.0 | 9.7 | 0.00 | 0.00 | 0.00 | 100 | 1010.0 |
| 20260905232637 | 64 | 36 | 3.2 | 9.7 | 0.00 | 0.00 | 0.00 | 100 | 1010.0 |
| 20260905232113 | 64 | 164 | 1.6 | 12.9 | 0.00 | 0.00 | 0.00 | 100 | 1010.0 |
| 20260905231613 | 65 | 140 | 1.6 | 12.9 | 0.00 | 0.00 | 0.00 | 100 | 1010.0 |
| 20260905231117 | 65 | 108 | 0.0 | 8.0 | 0.00 | 0.00 | 0.00 | 100 | 1010.0 |
| 20260905231113 | 65 | 115 | 3.2 | 11.3 | 0.00 | 0.00 | 0.00 | 100 | 1010.0 |
| 20260905230607 | 65 | 123 | 4.8 | 8.0 | 0.00 | 0.00 | 0.00 | 100 | 1010.0 |
| 20260905225604 | 65 | 143 | 0.0 | 9.7 | 0.00 | 0.00 | 0.00 | 100 | 1009.9 |
| 20260905225056 | 65 | 143 | 1.6 | 9.7 | 0.00 | 0.00 | 0.00 | 100 | 1010.0 |
| 20260905224557 | 65 | 77 | 1.6 | 8.0 | 0.00 | 0.00 | 0.00 | 100 | 1010.2 |
| 20260905224059 | 65 | 15 | 0.0 | 6.4 | 0.00 | 0.00 | 0.00 | 100 | 1010.0 |
| 20260905223555 | 65 | 136 | 0.0 | 6.4 | 0.00 | 0.00 | 0.00 | 100 | 1010.0 |
| 20260905223315 | 65 | 136 | 0.0 | 9.7 | 0.00 | 0.00 | 0.00 | 100 | 1010.0 |
| 20260905222522 | 64 | 146 | 3.2 | 9.7 | 0.00 | 0.00 | 0.00 | 100 | 1010.2 |
| 20260905222007 | 65 | 144 | 0.0 | 9.7 | 0.00 | 0.00 | 0.00 | 100 | 1010.2 |
| 20260905221506 | 65 | 227 | 0.0 | 9.7 | 0.00 | 0.00 | 0.00 | 100 | 1010.2 |
| 20260905221233 | 65 | 247 | 0.0 | 8.0 | 0.00 | 0.00 | 0.00 | 100 | 1010.3 |
| 20260905220444 | 65 | 239 | 4.8 | 8.0 | 0.00 | 0.00 | 0.00 | 100 | 1010.4 |
| 20260905220214 | 65 | 136 | 0.0 | 9.7 | 0.00 | 0.00 | 0.00 | 100 | 1010.4 |
| 20260905215433 | 65 | 137 | 3.2 | 9.7 | 0.00 | 0.00 | 0.00 | 100 | 1010.4 |
| 20260905214911 | 65 | 123 | 0.0 | 8.0 | 0.00 | 0.00 | 0.00 | 100 | 1010.4 |
| 20260905214406 | 65 | 146 | 0.0 | 11.3 | 0.00 | 0.00 | 0.00 | 100 | 1010.4 |
| 20260905213903 | 65 | 153 | 0.0 | 11.3 | 0.00 | 0.00 | 0.00 | 100 | 1010.4 |
| 20260905213401 | 65 | 116 | 0.0 | 3.2 | 0.00 | 0.00 | 0.00 | 100 | 1010.4 |
| 20260905212858 | 64 | 116 | 0.0 | 8.0 | 0.00 | 0.00 | 0.00 | 100 | 1010.4 |
| 20260905212357 | 64 | 116 | 3.2 | 8.0 | 0.00 | 0.00 | 0.00 | 100 | 1010.5 |
| 20260905211841 | 64 | 102 | 0.0 | 4.8 | 0.00 | 0.00 | 0.00 | 100 | 1010.5 |
| 20260905211319 | 65 | 102 | 0.0 | 6.4 | 0.00 | 0.00 | 0.00 | 100 | 1010.6 |
| 20260905210757 | 65 | 102 | 0.0 | 11.3 | 0.00 | 0.00 | 0.00 | 100 | 1010.6 |
| 20260905210528 | 65 | 136 | 6.4 | 11.3 | 0.00 | 0.00 | 0.00 | 100 | 1010.7 |
| 20260905205759 | 65 | 125 | 3.2 | 9.7 | 0.00 | 0.00 | 0.00 | 100 | 1010.7 |
| 20260905205258 | 65 | 237 | 1.6 | 14.5 | 0.00 | 0.00 | 0.00 | 100 | 1010.8 |
| 20260905204744 | 65 | 139 | 1.6 | 14.5 | 0.00 | 0.00 | 0.00 | 100 | 1010.9 |
| 20260905204242 | 65 | 82 | 0.0 | 12.9 | 0.00 | 0.00 | 0.00 | 100 | 1010.9 |
| 20260905203741 | 65 | 161 | 6.4 | 12.9 | 0.00 | 0.00 | 0.00 | 100 | 1011.1 |
| 20260905203241 | 65 | 180 | 0.0 | 11.3 | 0.00 | 0.00 | 0.00 | 100 | 1011.2 |
| 20260905202732 | 65 | 232 | 0.0 | 9.7 | 0.00 | 0.00 | 0.00 | 100 | 1011.1 |
| 20260905202232 | 65 | 213 | 0.0 | 11.3 | 0.00 | 0.00 | 0.00 | 100 | 1011.3 |
| 20260905201715 | 65 | 153 | 3.2 | 11.3 | 0.00 | 0.00 | 0.00 | 100 | 1011.4 |
| 20260905201215 | 65 | 180 | 4.8 | 6.4 | 0.00 | 0.00 | 0.00 | 100 | 1011.5 |
| 20260905200703 | 65 | 9 | 0.0 | 3.2 | 0.00 | 0.00 | 0.00 | 100 | 1011.6 |
| 20260905200431 | 65 | 9 | 0.0 | 4.8 | 0.00 | 0.00 | 0.00 | 100 | 1011.7 |
| 20260905195657 | 65 | 11 | 3.2 | 9.7 | 0.00 | 0.00 | 0.00 | 100 | 1011.7 |
| 20260905195157 | 65 | 125 | 1.6 | 12.9 | 0.00 | 0.00 | 0.00 | 100 | 1011.9 |
| 20260905194656 | 65 | 201 | 3.2 | 12.9 | 0.00 | 0.00 | 0.00 | 100 | 1011.9 |
| 20260905194143 | 65 | 296 | 0.0 | 12.9 | 0.00 | 0.00 | 0.00 | 100 | 1012.0 |
| 20260905193641 | 65 | 22 | 0.0 | 14.5 | 0.00 | 0.00 | 0.00 | 100 | 1012.1 |
| 20260905193139 | 65 | 133 | 6.4 | 14.5 | 0.00 | 0.00 | 0.00 | 100 | 1012.2 |
| 20260905192635 | 65 | 153 | 6.4 | 14.5 | 0.00 | 0.00 | 0.00 | 100 | 1012.3 |
| 20260905192135 | 65 | 191 | 6.4 | 12.9 | 0.00 | 0.00 | 0.00 | 100 | 1012.4 |
| 20260905191630 | 65 | 116 | 6.4 | 8.0 | 0.00 | 0.00 | 0.00 | 100 | 1012.5 |
| 20260905191358 | 65 | 185 | 0.0 | 6.4 | 0.00 | 0.00 | 0.00 | 100 | 1012.5 |
| 20260905190614 | 65 | 168 | 3.2 | 11.3 | 0.00 | 0.00 | 0.00 | 100 | 1012.8 |
| 20260905190113 | 65 | 175 | 4.8 | 16.1 | 0.00 | 0.00 | 0.00 | 100 | 1012.9 |
| 20260905185611 | 65 | 18 | 8.0 | 16.1 | 0.00 | 0.00 | 0.00 | 100 | 1012.9 |
| 20260905185112 | 65 | 1 | 1.6 | 16.1 | 0.00 | 0.00 | 0.00 | 100 | 1013.0 |
| 20260905184606 | 64 | 223 | 0.0 | 16.1 | 0.00 | 0.00 | 0.00 | 100 | 1013.0 |
| 20260905184333 | 65 | 45 | 1.6 | 17.7 | 0.00 | 0.00 | 0.00 | 100 | 1013.2 |
| 20260905183602 | 64 | 177 | 6.4 | 17.7 | 0.00 | 0.00 | 0.00 | 100 | 1013.3 |
| 20260905183102 | 65 | 156 | 4.8 | 9.7 | 0.00 | 0.00 | 0.00 | 100 | 1013.4 |
| 20260905182603 | 65 | 115 | 0.0 | 14.5 | 0.00 | 0.00 | 0.00 | 100 | 1013.5 |
| 20260905182101 | 64 | 157 | 3.2 | 14.5 | 0.00 | 0.00 | 0.00 | 100 | 1013.6 |
| 20260905181601 | 65 | 139 | 0.0 | 11.3 | 0.00 | 0.00 | 0.00 | 100 | 1013.6 |
| 20260905181059 | 65 | 151 | 0.0 | 17.7 | 0.00 | 0.00 | 0.00 | 100 | 1013.8 |
| 20260905180556 | 64 | 108 | 4.8 | 17.7 | 0.00 | 0.00 | 0.00 | 100 | 1014.0 |
| 20260905180328 | 64 | 156 | 9.7 | 14.5 | 0.00 | 0.00 | 0.00 | 100 | 1014.0 |
| 20260905175557 | 64 | 174 | 9.7 | 19.3 | 0.00 | 0.00 | 0.00 | 100 | 1014.1 |
| 20260905175057 | 64 | 130 | 6.4 | 19.3 | 0.00 | 0.00 | 0.00 | 100 | 1014.3 |
| 20260905174557 | 64 | 26 | 1.6 | 12.9 | 0.00 | 0.00 | 0.00 | 100 | 1014.3 |
| 20260905174057 | 63 | 142 | 3.2 | 11.3 | 0.00 | 0.00 | 0.00 | 100 | 1014.5 |
| 20260905173556 | 64 | 146 | 4.8 | 11.3 | 0.00 | 0.00 | 0.00 | 100 | 1014.4 |
| 20260905173057 | 64 | 14 | 0.0 | 11.3 | 0.00 | 0.00 | 0.00 | 100 | 1014.5 |
| 20260905172557 | 64 | 157 | 1.6 | 8.0 | 0.00 | 0.00 | 0.00 | 100 | 1014.5 |
| 20260905172053 | 64 | 167 | 4.8 | 8.0 | 0.00 | 0.00 | 0.00 | 100 | 1014.7 |
| 20260905171539 | 64 | 147 | 1.6 | 9.7 | 0.00 | 0.00 | 0.00 | 100 | 1014.6 |
| 20260905171039 | 63 | 135 | 6.4 | 16.1 | 0.00 | 0.00 | 0.00 | 100 | 1014.7 |
| 20260905170808 | 63 | 91 | 9.7 | 16.1 | 0.00 | 0.00 | 0.00 | 100 | 1014.7 |
| 20260905170029 | 63 | 115 | 0.0 | 14.5 | 0.00 | 0.00 | 0.00 | 100 | 1014.7 |
| 20260905165801 | 64 | 149 | 1.6 | 14.5 | 0.00 | 0.00 | 0.00 | 100 | 1014.7 |
| 20260905165021 | 64 | 133 | 6.4 | 9.7 | 0.00 | 0.00 | 0.00 | 100 | 1014.8 |
| 20260905164516 | 63 | 109 | 0.0 | 14.5 | 0.00 | 0.00 | 0.00 | 100 | 1014.9 |
| 20260905164006 | 63 | 149 | 0.0 | 14.5 | 0.00 | 0.00 | 0.00 | 100 | 1014.9 |
| 20260905163734 | 63 | 161 | 4.8 | 14.5 | 0.00 | 0.00 | 0.00 | 100 | 1014.9 |
| 20260905163003 | 63 | 150 | 8.0 | 14.5 | 0.00 | 0.00 | 0.00 | 100 | 1014.8 |
| 20260905162502 | 63 | 143 | 3.2 | 12.9 | 0.00 | 0.00 | 0.00 | 100 | 1014.8 |
| 20260905162232 | 63 | 180 | 8.0 | 12.9 | 0.00 | 0.00 | 0.00 | 100 | 1014.8 |
| 20260905161732 | 63 | 125 | 0.0 | 12.9 | 0.00 | 0.00 | 0.00 | 100 | 1014.9 |
| 20260905160959 | 63 | 182 | 8.0 | 12.9 | 0.00 | 0.00 | 0.00 | 100 | 1015.0 |
| 20260905160729 | 63 | 140 | 6.4 | 12.9 | 0.00 | 0.00 | 0.00 | 100 | 1014.9 |
| 20260905155959 | 63 | 146 | 0.0 | 17.7 | 0.00 | 0.00 | 0.00 | 100 | 1014.9 |
| 20260905155456 | 63 | 170 | 0.0 | 17.7 | 0.00 | 0.00 | 0.00 | 100 | 1014.9 |
| 20260905154957 | 63 | 188 | 8.0 | 14.5 | 0.00 | 0.00 | 0.00 | 100 | 1014.8 |
| 20260905154458 | 63 | 217 | 4.8 | 14.5 | 0.00 | 0.00 | 0.00 | 100 | 1014.8 |
| 20260905153958 | 63 | 151 | 4.8 | 14.5 | 0.00 | 0.00 | 0.00 | 100 | 1014.8 |
| 20260905153457 | 63 | 244 | 8.0 | 14.5 | 0.00 | 0.00 | 0.00 | 100 | 1014.8 |
| 20260905152956 | 63 | 151 | 3.2 | 14.5 | 0.00 | 0.00 | 0.00 | 100 | 1014.9 |
| 20260905152727 | 63 | 239 | 9.7 | 14.5 | 0.00 | 0.00 | 0.00 | 100 | 1014.9 |
| 20260905151957 | 63 | 229 | 3.2 | 12.9 | 0.00 | 0.00 | 0.00 | 100 | 1014.9 |
| 20260905151458 | 63 | 246 | 0.0 | 11.3 | 0.00 | 0.00 | 0.00 | 100 | 1014.8 |
| 20260905150957 | 63 | 236 | 1.6 | 11.3 | 0.00 | 0.00 | 0.00 | 100 | 1014.9 |
| 20260905150457 | 62 | 222 | 0.0 | 12.9 | 0.00 | 0.00 | 0.00 | 100 | 1014.9 |
| 20260905145956 | 62 | 164 | 6.4 | 12.9 | 0.00 | 0.00 | 0.00 | 100 | 1014.9 |
| 20260905145456 | 62 | 187 | 0.0 | 11.3 | 0.00 | 0.00 | 0.00 | 100 | 1014.9 |
| 20260905144951 | 62 | 123 | 6.4 | 11.3 | 0.00 | 0.00 | 0.00 | 100 | 1014.8 |
| 20260905144451 | 62 | 137 | 0.0 | 9.7 | 0.00 | 0.00 | 0.00 | 100 | 1014.7 |
| 20260905143942 | 62 | 170 | 0.0 | 9.7 | 0.00 | 0.00 | 0.00 | 100 | 1014.7 |
| 20260905143439 | 62 | 136 | 0.0 | 9.7 | 0.00 | 0.00 | 0.00 | 100 | 1014.8 |
| 20260905143210 | 62 | 220 | 1.6 | 9.7 | 0.00 | 0.00 | 0.00 | 100 | 1014.7 |
| 20260905142712 | 62 | 113 | 0.0 | 4.8 | 0.00 | 0.00 | 0.00 | 100 | 1014.7 |
| 20260905141919 | 62 | 113 | 0.0 | 4.8 | 0.00 | 0.00 | 0.00 | 100 | 1014.7 |
| 20260905141344 | 62 | 113 | 0.0 | 9.7 | 0.00 | 0.00 | 0.00 | 100 | 1014.7 |
| 20260905140833 | 62 | 125 | 1.6 | 9.7 | 0.00 | 0.00 | 0.00 | 100 | 1014.6 |
| 20260905140331 | 62 | 154 | 6.4 | 8.0 | 0.00 | 0.00 | 0.00 | 100 | 1014.6 |
| 20260905135830 | 62 | 154 | 0.0 | 8.0 | 0.00 | 0.00 | 0.00 | 100 | 1014.6 |
| 20260905135330 | 62 | 181 | 0.0 | 0.0 | 0.00 | 0.00 | 0.00 | 100 | 1014.5 |
| 20260905134830 | 62 | 181 | 0.0 | 0.0 | 0.00 | 0.00 | 0.00 | 2 | 1014.4 |
| 20260905134311 | 62 | 181 | 0.0 | 0.0 | 0.00 | 0.00 | 0.00 | 4 | 1014.4 |
| 20260905133808 | 62 | 181 | 0.0 | 0.0 | 0.00 | 0.00 | 0.00 | 14 | 1014.4 |
| 20260905133300 | 61 | 181 | 0.0 | 0.0 | 0.00 | 0.00 | 0.00 | 29 | 1014.5 |
| 20260905132754 | 61 | 181 | 0.0 | 0.0 | 0.00 | 0.00 | 0.00 | 47 | 1014.5 |
| 20260905132242 | 61 | 181 | 0.0 | 0.0 | 0.00 | 0.00 | 0.00 | 65 | 1014.4 |
| 20260905131741 | 61 | 181 | 0.0 | 0.0 | 0.00 | 0.00 | 0.00 | 96 | 1014.3 |
| 20260905131509 | 61 | 181 | 0.0 | 0.0 | 0.00 | 0.00 | 0.00 | 100 | 1014.3 |
| 20260905130714 | 61 | 181 | 0.0 | 0.0 | 0.00 | 0.00 | 0.00 | 100 | 1014.3 |
| 20260905130215 | 61 | 181 | 0.0 | 0.0 | 0.00 | 0.00 | 0.00 | 100 | 1014.2 |
| 20260905125714 | 61 | 181 | 0.0 | 0.0 | 0.00 | 0.00 | 0.00 | 100 | 1014.2 |
| 20260905125212 | 61 | 181 | 0.0 | 0.0 | 0.00 | 0.00 | 0.00 | 100 | 1014.2 |
| 20260905124658 | 61 | 181 | 0.0 | 0.0 | 0.00 | 0.00 | 0.00 | 100 | 1014.0 |
| 20260905124157 | 61 | 181 | 0.0 | 0.0 | 0.00 | 0.00 | 0.00 | 100 | 1013.9 |
| 20260905123635 | 61 | 181 | 0.0 | 0.0 | 0.00 | 0.00 | 0.00 | 100 | 1013.9 |
| 20260905123127 | 61 | 181 | 0.0 | 0.0 | 0.00 | 0.00 | 0.00 | 100 | 1013.9 |
| 20260905122617 | 61 | 181 | 0.0 | 0.0 | 0.00 | 0.00 | 0.00 | 100 | 1013.9 |
| 20260905122117 | 61 | 181 | 0.0 | 0.0 | 0.00 | 0.00 | 0.00 | 100 | 1013.9 |
| 20260905121554 | 61 | 181 | 0.0 | 0.0 | 0.00 | 0.00 | 0.00 | 100 | 1013.9 |
| 20260905121041 | 61 | 181 | 0.0 | 0.0 | 0.00 | 0.00 | 0.00 | 100 | 1013.8 |
| 20260905120539 | 61 | 181 | 0.0 | 0.0 | 0.00 | 0.00 | 0.00 | 100 | 1013.8 |
| 20260905120248 | 61 | 181 | 0.0 | 0.0 | 0.00 | 0.00 | 0.00 | 100 | 1013.8 |
| 20260905115512 | 61 | 181 | 0.0 | 0.0 | 0.00 | 0.00 | 0.00 | 100 | 1013.6 |
| 20260905115002 | 61 | 181 | 0.0 | 0.0 | 0.00 | 0.00 | 0.00 | 100 | 1013.5 |
| 20260905114457 | 61 | 181 | 0.0 | 0.0 | 0.00 | 0.00 | 0.00 | 100 | 1013.5 |
| 20260905113935 | 61 | 181 | 0.0 | 0.0 | 0.00 | 0.00 | 0.00 | 100 | 1013.5 |
| 20260905113407 | 61 | 181 | 0.0 | 0.0 | 0.00 | 0.00 | 0.00 | 100 | 1013.5 |
| 20260905113138 | 61 | 181 | 0.0 | 0.0 | 0.00 | 0.00 | 0.00 | 95 | 1013.3 |
| 20260905112629 | 61 | 181 | 0.0 | 0.0 | 0.00 | 0.00 | 0.00 | 92 | 1013.3 |
| 20260905111856 | 61 | 181 | 0.0 | 0.0 | 0.00 | 0.00 | 0.00 | 92 | 1013.4 |
| 20260905111604 | 61 | 181 | 0.0 | 0.0 | 0.00 | 0.00 | 0.00 | 92 | 1013.4 |
| 20260905110829 | 61 | 181 | 0.0 | 0.0 | 0.00 | 0.00 | 0.00 | 91 | 1013.3 |
| 20260905110326 | 61 | 181 | 0.0 | 0.0 | 0.00 | 0.00 | 0.00 | 45 | 1013.3 |
| 20260905105828 | 61 | 181 | 0.0 | 0.0 | 0.00 | 0.00 | 0.00 | 41 | 1013.2 |
| 20260905105324 | 61 | 181 | 0.0 | 0.0 | 0.00 | 0.00 | 0.00 | 41 | 1013.2 |
| 20260905104817 | 61 | 181 | 0.0 | 0.0 | 0.00 | 0.00 | 0.00 | 33 | 1013.2 |
| 20260905104254 | 61 | 181 | 0.0 | 0.0 | 0.00 | 0.00 | 0.00 | 30 | 1013.2 |
| 20260905103731 | 61 | 181 | 0.0 | 0.0 | 0.00 | 0.00 | 0.00 | 26 | 1013.2 |
| 20260905103223 | 61 | 181 | 0.0 | 0.0 | 0.00 | 0.00 | 0.00 | 23 | 1013.2 |
| 20260905102713 | 61 | 181 | 0.0 | 0.0 | 0.00 | 0.00 | 0.00 | 19 | 1013.2 |
| 20260905102212 | 61 | 181 | 0.0 | 0.0 | 0.00 | 0.00 | 0.00 | 17 | 1013.2 |
| 20260905101712 | 61 | 181 | 0.0 | 0.0 | 0.00 | 0.00 | 0.00 | 15 | 1013.3 |
| 20260905101212 | 61 | 181 | 0.0 | 0.0 | 0.00 | 0.00 | 0.00 | 15 | 1013.2 |
| 20260905100706 | 61 | 181 | 0.0 | 0.0 | 0.00 | 0.00 | 0.00 | 13 | 1013.2 |
| 20260905100204 | 61 | 181 | 0.0 | 0.0 | 0.00 | 0.00 | 0.00 | 10 | 1013.1 |
| 20260905095658 | 61 | 181 | 0.0 | 0.0 | 0.00 | 0.00 | 0.00 | 8 | 1013.1 |
| 20260905095158 | 61 | 181 | 0.0 | 0.0 | 0.00 | 0.00 | 0.00 | 7 | 1013.0 |
| 20260905094658 | 61 | 181 | 0.0 | 0.0 | 0.00 | 0.00 | 0.00 | 7 | 1013.0 |
| 20260905094145 | 61 | 181 | 0.0 | 0.0 | 0.00 | 0.00 | 0.00 | 6 | 1013.0 |
| 20260905093629 | 61 | 181 | 0.0 | 0.0 | 0.00 | 0.00 | 0.00 | 5 | 1013.0 |
| 20260905093356 | 61 | 181 | 0.0 | 0.0 | 0.00 | 0.00 | 0.00 | 5 | 1013.0 |
| 20260905092857 | 61 | 181 | 0.0 | 0.0 | 0.00 | 0.00 | 0.00 | 4 | 1013.0 |
| 20260905092106 | 61 | 181 | 0.0 | 0.0 | 0.00 | 0.00 | 0.00 | 4 | 1013.0 |
| 20260905091545 | 61 | 181 | 0.0 | 0.0 | 0.00 | 0.00 | 0.00 | 3 | 1013.0 |
| 20260905091044 | 61 | 181 | 0.0 | 0.0 | 0.00 | 0.00 | 0.00 | 2 | 1013.0 |
| 20260905090809 | 61 | 181 | 0.0 | 0.0 | 0.00 | 0.00 | 0.00 | 2 | 1013.1 |
| 20260905090530 | 61 | 181 | 0.0 | 0.0 | 0.00 | 0.00 | 0.00 | 1 | 1013.0 |
| 20260905085525 | 61 | 181 | 0.0 | 0.0 | 0.00 | 0.00 | 0.00 | 1 | 1013.1 |
| 20260905085025 | 61 | 181 | 0.0 | 0.0 | 0.00 | 0.00 | 0.00 | 100 | 1013.1 |
| 20260905084502 | 61 | 181 | 0.0 | 0.0 | 0.00 | 0.00 | 0.00 | 100 | 1013.2 |
| 20260905084214 | 61 | 181 | 0.0 | 0.0 | 0.00 | 0.00 | 0.00 | 100 | 1013.2 |
| 20260905083428 | 61 | 181 | 0.0 | 4.8 | 0.00 | 0.00 | 0.00 | 100 | 1013.2 |
| 20260905082927 | 62 | 181 | 0.0 | 4.8 | 0.00 | 0.00 | 0.00 | 100 | 1013.2 |
| 20260905082417 | 62 | 125 | 0.0 | 1.6 | 0.00 | 0.00 | 0.00 | 100 | 1013.2 |
| 20260905082148 | 62 | 125 | 0.0 | 9.7 | 0.00 | 0.00 | 0.00 | 100 | 1013.3 |
| 20260905081647 | 62 | 125 | 1.6 | 9.7 | 0.00 | 0.00 | 0.00 | 100 | 1013.3 |
| 20260905080913 | 62 | 174 | 0.0 | 0.0 | 0.00 | 0.00 | 0.00 | 100 | 1013.3 |
| 20260905080403 | 62 | 174 | 0.0 | 0.0 | 0.00 | 0.00 | 0.00 | 100 | 1013.5 |